[[{"header":{"parameterUnit":"m.s-1","parameterCategory":1,"la1":30.2991,"la2":30.254,"lo1":-89.0895,"lo2":-89.0444,"dy":0.0017,"dx":0.0017,"nx":28,"ny":28,"refTime":"2024-08-21T21:00:00:Z","depth":0,"parameterNumber":2,"parameterNumberName":"U-component_of_WINDS"},"data":[0,0,0,0,0,0,0,0,0,0,0,0,0,0,0,0,0,0,0,0,0,0,0,0,0,0,0,0,0,0,0,0,0,0,0,0,0,0,0,0,0,0,0,0,0,0,0,0,0,0,0,0,0,0,0,0,0,0,1.2401,1.24,0,1.2321,1.232,1.2319,1.2248,1.2247,1.2246,1.2246,1.2159,1.2158,1.2156,0,0,0,0,0,0,0,0,0,0,0,0,0,1.2488,1.2487,1.2401,1.24,1.2399,1.2321,1.232,1.2319,1.2248,1.2247,1.2246,1.2245,1.216,1.2158,1.2156,0,0,0,0,0,0,0,0,0,0,0,0,0,1.2434,1.2487,1.2401,1.2354,1.2349,1.2321,1.232,1.2318,1.2248,1.2247,1.2246,1.2245,1.216,1.2158,1.2156,1.2166,0,0,1.2149,1.2148,0,0,0,0,0,0,0,0,1.2437,1.243,1.2362,1.2357,1.2352,1.2293,1.2319,1.2267,1.2249,1.2286,1.2245,1.2244,1.2205,1.2199,1.2186,1.2162,1.2158,1.2149,1.2147,1.2146,1.2146,0,0,0,0,0,0,0,1.2441,1.2433,1.2369,1.2361,1.2355,1.2336,1.2327,1.2309,1.2253,1.2283,1.2278,1.2269,1.2201,1.2189,1.2184,1.2157,1.2149,1.2147,1.2145,1.2144,1.2138,1.2139,0,0,0,0,0,0,1.2452,1.2437,1.2371,1.2366,1.2392,1.2335,1.2325,1.2313,1.2253,1.2243,1.2271,1.2266,1.2193,1.2186,1.218,1.2189,1.2146,1.2144,1.2143,1.2137,1.2138,1.2139,0,0,0,0,0,0,1.2454,1.2447,1.2375,1.24,1.239,1.2335,1.2322,1.2312,1.2299,1.2244,1.2233,1.2268,1.2192,1.2183,1.2171,1.2185,1.2143,1.2141,1.2135,1.2137,1.2139,1.2205,0,0,0,0,0,0,1.2457,1.2448,1.2452,1.2401,1.2389,1.2368,1.2323,1.2311,1.2296,1.229,1.2238,1.2229,1.219,1.2174,1.2168,1.2181,1.2139,1.2134,1.2136,1.2138,1.2202,1.2209,1.2216,0,0,0,0,0,1.2461,1.2473,1.2453,1.2445,1.2393,1.2369,1.2361,1.2318,1.2297,1.2301,1.2265,1.223,1.2184,1.2174,1.2166,1.2178,1.2133,1.2135,1.2138,1.2199,1.2208,1.2216,0,0,0,0,0,0,1.2526,1.2466,1.2442,1.2439,1.241,1.2357,1.236,1.2329,1.2304,1.2299,1.2245,1.2234,1.2227,1.2201,1.219,1.2185,1.2154,1.2155,1.2202,1.2211,1.2218,1.2224,1.2137,0,0,0,0,0,1.2541,1.2527,1.2475,1.2477,1.2463,1.2414,1.2402,1.2371,1.2338,1.2325,1.2288,1.2256,1.2234,1.2221,1.2198,1.2198,1.2185,1.2202,1.2209,1.2215,1.2217,1.2215,1.2222,1.2148,1.2148,1.2148,0,0,1.257,1.2535,1.253,1.2489,1.2463,1.2449,1.2404,1.2391,1.238,1.2322,1.2308,1.2281,1.2241,1.2235,1.223,1.2213,1.2235,1.2219,1.2224,1.2222,1.2218,1.2226,1.2232,1.215,1.215,1.2149,0,0,1.2616,1.2589,1.2588,1.2562,1.2524,1.2491,1.2491,1.2443,1.2422,1.2408,1.2364,1.235,1.2313,1.2287,1.2269,1.2306,1.2273,1.23,1.2336,1.2335,1.2341,1.2346,1.2359,1.2365,1.2302,1.2302,1.2302,0,1.2656,1.2635,1.2591,1.2581,1.2564,1.2513,1.2511,1.2488,1.2443,1.2432,1.2414,1.2368,1.2337,1.2325,1.2334,1.2321,1.2318,1.2305,1.2344,1.2348,1.2352,1.2364,1.237,1.2305,1.2305,1.2305,1.2304,0,1.2687,1.2673,1.2677,1.2637,1.2621,1.2615,1.2568,1.2557,1.2528,1.2497,1.2483,1.2445,1.2413,1.2408,1.2378,1.2391,1.2381,1.2354,1.2322,1.2364,1.2374,1.2378,1.231,1.2309,1.2308,1.2307,0,0,1.2772,1.2708,1.271,1.2692,1.2645,1.2633,1.2625,1.2595,1.2587,1.2557,1.2549,1.252,1.2495,1.2474,1.2441,1.2441,1.2473,1.2413,1.2411,1.2426,1.2484,1.2505,1.2511,1.2451,1.2451,1.2452,1.2487,0,1.2811,1.2794,1.2754,1.275,1.2736,1.2687,1.268,1.265,1.2621,1.2604,1.2571,1.2552,1.252,1.2508,1.2505,1.247,1.2483,1.2466,1.2441,1.2441,1.2453,1.2516,1.2538,1.2573,1.2491,1.2491,1.2492,0,1.2853,1.2829,1.2824,1.2779,1.2772,1.2766,1.2736,1.2721,1.2686,1.2665,1.2643,1.2608,1.2595,1.2565,1.2547,1.2537,1.2524,1.2505,1.2505,1.2501,1.2469,1.2514,1.2583,1.2589,1.2498,1.2497,1.2497,0,1.2916,1.2882,1.2875,1.286,1.2807,1.2805,1.2782,1.2746,1.2731,1.2705,1.2694,1.2666,1.2651,1.2629,1.2587,1.2569,1.2573,1.254,1.2555,1.2556,1.2557,1.2558,1.2626,1.2549,1.2549,1.2549,1.2549,0,1.2963,1.2962,1.2902,1.2898,1.2895,1.2848,1.2846,1.2819,1.2787,1.2776,1.2731,1.2721,1.2666,1.2649,1.2615,1.2605,1.2598,1.258,1.2571,1.2584,1.2587,1.2575,1.2572,1.2551,1.255,1.255,1.255,0,1.3033,1.2993,1.2981,1.2933,1.2921,1.2921,1.2879,1.2872,1.2841,1.2827,1.2821,1.2771,1.2749,1.2705,1.267,1.2647,1.2645,1.2629,1.2658,1.2652,1.2669,1.2668,1.2732,1.2738,1.2658,1.2659,1.266,0,1.3066,1.3064,1.3016,1.3006,1.2986,1.297,1.2955,1.2909,1.2895,1.2855,1.2853,1.2828,1.2806,1.2773,1.2733,1.2706,1.2689,1.2713,1.2684,1.2698,1.2689,1.269,1.269,1.272,1.2721,1.2722,1.2722,0,1.3128,1.3109,1.309,1.3064,1.3048,1.3025,1.3,1.2994,1.2941,1.2928,1.2906,1.2889,1.2854,1.2829,1.2797,1.2772,1.2738,1.2732,1.2734,1.2747,1.2764,1.2755,1.2675,1.273,1.273,1.2729,1.2729,1.2728,1.318,1.3177,1.3143,1.3123,1.31,1.3077,1.3069,1.3037,1.3018,1.2988,1.2961,1.2942,1.2906,1.2859,1.2837,1.282,1.2804,1.2806,1.2807,1.2809,1.2814,1.2767,1.2814,1.2814,1.2813,1.2813,1.2813,0,1.3241,1.3217,1.3199,1.3166,1.3151,1.3122,1.3093,1.3081,1.3065,1.3036,1.3015,1.299,1.2966,1.2925,1.2897,1.2892,1.2875,1.2886,1.2886,1.2881,1.283,1.2832,1.2899,1.2899,1.2899,1.2899,1.2899,1.2899,1.3271,1.3263,1.324,1.322,1.3195,1.3177,1.3163,1.3142,1.3118,1.3093,1.3073,1.3047,1.3013,1.2982,1.2959,1.2947,1.2939,1.2955,1.2938,1.2892,1.2884,1.2876,1.2877,1.2953,1.2953,1.2989,1.299,1.299]},{"header":{"parameterUnit":"m.s-1","parameterCategory":1,"la1":30.2991,"la2":30.254,"lo1":-89.0895,"lo2":-89.0444,"dy":0.0017,"dx":0.0017,"nx":28,"ny":28,"refTime":"2024-08-21T21:00:00:Z","depth":0,"parameterNumber":3,"parameterNumberName":"V-component_of_WINDS"},"data":[0,0,0,0,0,0,0,0,0,0,0,0,0,0,0,0,0,0,0,0,0,0,0,0,0,0,0,0,0,0,0,0,0,0,0,0,0,0,0,0,0,0,0,0,0,0,0,0,0,0,0,0,0,0,0,0,0,0,-2.5142,-2.5144,0,-2.528,-2.5282,-2.5284,-2.5309,-2.5308,-2.5306,-2.5305,-2.5445,-2.5449,-2.5454,0,0,0,0,0,0,0,0,0,0,0,0,0,-2.4898,-2.4902,-2.5142,-2.5144,-2.5146,-2.528,-2.5282,-2.5284,-2.5309,-2.5308,-2.5306,-2.5305,-2.5443,-2.5449,-2.5454,0,0,0,0,0,0,0,0,0,0,0,0,0,-2.5017,-2.4904,-2.5142,-2.5174,-2.5179,-2.528,-2.5282,-2.5285,-2.5309,-2.5307,-2.5306,-2.5304,-2.5441,-2.5448,-2.5455,-2.5533,0,0,-2.5477,-2.548,0,0,0,0,0,0,0,0,-2.501,-2.5026,-2.5168,-2.5172,-2.5177,-2.5276,-2.5247,-2.5368,-2.531,-2.526,-2.5305,-2.5303,-2.539,-2.5401,-2.543,-2.5539,-2.5545,-2.5478,-2.5482,-2.5485,-2.5487,0,0,0,0,0,0,0,-2.5002,-2.502,-2.5197,-2.517,-2.5176,-2.5181,-2.5196,-2.527,-2.5332,-2.5264,-2.5266,-2.5282,-2.5392,-2.5423,-2.5434,-2.5548,-2.5477,-2.5484,-2.5488,-2.5491,-2.5727,-2.5729,0,0,0,0,0,0,-2.4988,-2.5013,-2.5193,-2.5201,-2.5088,-2.5187,-2.5204,-2.5246,-2.5332,-2.5343,-2.5283,-2.5283,-2.5412,-2.5425,-2.5439,-2.5535,-2.5485,-2.5492,-2.5496,-2.5725,-2.5727,-2.5729,0,0,0,0,0,0,-2.4983,-2.5004,-2.5187,-2.5108,-2.5131,-2.5193,-2.524,-2.5249,-2.5281,-2.5346,-2.5357,-2.5304,-2.5411,-2.5429,-2.5509,-2.554,-2.5495,-2.5501,-2.5722,-2.5725,-2.5728,-2.5728,0,0,0,0,0,0,-2.4976,-2.5002,-2.5032,-2.5108,-2.5136,-2.5256,-2.5242,-2.5253,-2.5294,-2.5294,-2.5369,-2.538,-2.5411,-2.5499,-2.5516,-2.5549,-2.5507,-2.572,-2.5724,-2.5727,-2.5726,-2.5731,-2.5735,0,0,0,0,0,-2.4967,-2.5027,-2.5034,-2.5055,-2.5175,-2.5258,-2.5273,-2.5309,-2.5296,-2.5327,-2.5369,-2.5377,-2.5534,-2.5507,-2.5527,-2.5562,-2.5718,-2.5723,-2.5727,-2.5724,-2.573,-2.5735,0,0,0,0,0,0,-2.4952,-2.5037,-2.5046,-2.5133,-2.5188,-2.5262,-2.5302,-2.5314,-2.5374,-2.5372,-2.5413,-2.5429,-2.5508,-2.5543,-2.5511,-2.5642,-2.5625,-2.5634,-2.5616,-2.5622,-2.5627,-2.5616,-2.5513,0,0,0,0,0,-2.4959,-2.502,-2.509,-2.516,-2.5187,-2.524,-2.5277,-2.53,-2.5358,-2.5381,-2.5429,-2.5485,-2.5547,-2.5587,-2.5647,-2.5731,-2.5747,-2.5766,-2.577,-2.5774,-2.5781,-2.5827,-2.5836,-2.5744,-2.5744,-2.5744,0,0,-2.4974,-2.5028,-2.5063,-2.5158,-2.5204,-2.5264,-2.5259,-2.5324,-2.5369,-2.5391,-2.547,-2.5507,-2.5572,-2.5654,-2.5693,-2.5687,-2.581,-2.578,-2.5782,-2.5787,-2.5833,-2.5841,-2.5849,-2.5747,-2.5746,-2.5746,0,0,-2.5032,-2.5079,-2.5142,-2.5187,-2.5257,-2.5291,-2.5306,-2.5379,-2.5404,-2.5484,-2.5502,-2.5556,-2.5662,-2.5707,-2.5744,-2.5819,-2.5829,-2.5838,-2.5862,-2.5907,-2.5914,-2.5921,-2.5947,-2.5955,-2.5845,-2.5845,-2.5845,0,-2.5041,-2.5134,-2.5172,-2.5236,-2.5277,-2.53,-2.5364,-2.5406,-2.5491,-2.5518,-2.551,-2.5643,-2.5688,-2.5782,-2.58,-2.5829,-2.5847,-2.5829,-2.591,-2.5917,-2.5924,-2.5949,-2.5959,-2.5845,-2.5845,-2.5845,-2.5845,0,-2.5142,-2.5206,-2.5248,-2.533,-2.5376,-2.5439,-2.5486,-2.5527,-2.5546,-2.5581,-2.5662,-2.5718,-2.579,-2.5814,-2.5833,-2.591,-2.5903,-2.5902,-2.5886,-2.5933,-2.5957,-2.5967,-2.5846,-2.5846,-2.5846,-2.5845,0,0,-2.5193,-2.5296,-2.5311,-2.5348,-2.5426,-2.5476,-2.554,-2.5611,-2.5646,-2.5704,-2.5758,-2.5847,-2.5846,-2.5888,-2.5912,-2.5952,-2.6006,-2.5946,-2.5948,-2.5954,-2.6094,-2.6093,-2.6104,-2.6014,-2.6016,-2.6017,-2.6088,0,-2.526,-2.5376,-2.5412,-2.5508,-2.5567,-2.559,-2.5646,-2.57,-2.5734,-2.5789,-2.5827,-2.5889,-2.5884,-2.591,-2.595,-2.5991,-2.6035,-2.5987,-2.6063,-2.6066,-2.6045,-2.6117,-2.6117,-2.618,-2.6098,-2.6099,-2.61,0,-2.5353,-2.5413,-2.5515,-2.5585,-2.5611,-2.5661,-2.5729,-2.5781,-2.5842,-2.5864,-2.5911,-2.5932,-2.5999,-2.598,-2.6072,-2.6038,-2.6072,-2.6097,-2.61,-2.6108,-2.6085,-2.6125,-2.6202,-2.6211,-2.6116,-2.6115,-2.6114,0,-2.5379,-2.5485,-2.556,-2.5592,-2.5676,-2.571,-2.5746,-2.5806,-2.5846,-2.5905,-2.5931,-2.5997,-2.6033,-2.6083,-2.6121,-2.6103,-2.6209,-2.6193,-2.6229,-2.6228,-2.6249,-2.6247,-2.6331,-2.6272,-2.6272,-2.6272,-2.6272,0,-2.5448,-2.551,-2.5573,-2.5619,-2.5688,-2.5729,-2.5796,-2.5834,-2.5886,-2.5939,-2.5964,-2.6013,-2.606,-2.6115,-2.6145,-2.6217,-2.6233,-2.6252,-2.6259,-2.6249,-2.6247,-2.6271,-2.6267,-2.6275,-2.6274,-2.6274,-2.6273,0,-2.5489,-2.5534,-2.5617,-2.569,-2.571,-2.5758,-2.582,-2.5865,-2.5901,-2.5967,-2.5985,-2.6041,-2.6107,-2.6151,-2.6235,-2.6255,-2.6332,-2.6339,-2.6312,-2.6315,-2.6348,-2.6344,-2.6449,-2.6465,-2.6397,-2.6397,-2.6398,0,-2.553,-2.5578,-2.5656,-2.5694,-2.5731,-2.5791,-2.5832,-2.5874,-2.5916,-2.5989,-2.6025,-2.6093,-2.6149,-2.6254,-2.6301,-2.6366,-2.6373,-2.6406,-2.6383,-2.6372,-2.6373,-2.6369,-2.6373,-2.6409,-2.641,-2.641,-2.641,0,-2.5598,-2.5618,-2.5677,-2.5744,-2.5792,-2.5847,-2.5901,-2.593,-2.5982,-2.6027,-2.6096,-2.614,-2.6226,-2.6293,-2.6361,-2.6398,-2.6413,-2.6418,-2.6429,-2.6419,-2.6401,-2.641,-2.6321,-2.6415,-2.6414,-2.6414,-2.6414,-2.6414,-2.5639,-2.5683,-2.5744,-2.5809,-2.5855,-2.5905,-2.5951,-2.5993,-2.6051,-2.6125,-2.6146,-2.6217,-2.6276,-2.637,-2.6408,-2.6464,-2.646,-2.6476,-2.648,-2.6484,-2.6483,-2.6393,-2.6476,-2.6476,-2.6476,-2.6476,-2.6476,0,-2.5707,-2.5748,-2.5808,-2.5883,-2.5934,-2.5944,-2.6005,-2.6047,-2.6109,-2.6164,-2.6219,-2.6297,-2.6362,-2.6415,-2.6481,-2.6516,-2.6524,-2.6532,-2.6529,-2.6537,-2.6484,-2.6467,-2.6524,-2.6524,-2.6524,-2.6524,-2.6524,-2.6524,-2.5748,-2.5822,-2.5849,-2.5946,-2.5986,-2.6056,-2.609,-2.6136,-2.618,-2.6266,-2.6321,-2.6355,-2.6409,-2.648,-2.6539,-2.6553,-2.6576,-2.6582,-2.6597,-2.6546,-2.6541,-2.6536,-2.652,-2.6587,-2.6587,-2.6646,-2.6646,-2.6647]}]]